Select NOAA-NWS Forecast Office Text Products

(Product availability varies with seasons, forecast office, and weather.)

Regional Weather Roundup for Pendleton, OR

To Select Another NWS Office Click on Map or Choose from List

County Warning Area MAP
Select Forecast Office:   Select Product:  
000
ASUS46 KPDT 181725
RWRPDT
PENDLETON REGIONAL WEATHER ROUNDUP
NATIONAL WEATHER SERVICE PENDLETON OREGON
1000 AM PDT SUN AUG 18 2019

NOTE: FAIR INDICATES FEW OR NO CLOUDS BELOW 12,000 FEET WITH NO
SIGNIFICANT WEATHER AND/OR OBSTRUCTIONS TO VISIBILITY.

# INDICATES UNOFFICIAL STATION AND DATA

WAZ520-181810-
EAST SLOPES OF WASHINGTON CASCADES

CITY            SKY/WX      TMP DP  RH  WIND    PRES   REMARKS
#BULLFROG       N/A         65  50  58  SW2     N/A
#ELK HTS DOT    N/A         67  66  97  N1      N/A
#GLENWOOD       N/A         60  52  75  CALM    29.81F
#NELSON 3SW     N/A         61  52  72  CALM    29.96F
#TROUT LAKE 1NE N/A         63  53  70  CALM    29.79S
#TROUT LAKE 1E  N/A         65  53  65  CALM    29.87S
$$

WAZ521-181810-
SIMCOE HIGHLANDS

CITY            SKY/WX      TMP DP  RH  WIND    PRES   REMARKS
#SATUS PASS DOT N/A         65  42  43  S3      N/A
#CENTERVILLE 1SWN/A         65  51  60  CALM    29.75S
#LYLE 6NE       N/A         62  54  75  CALM    29.80F
#PITT 4SE       N/A         61  53  75  W2      29.82S
$$

WAZ026-181810-
KITTITAS VALLEY

CITY            SKY/WX      TMP DP  RH  WIND    PRES   REMARKS
ELLENSBURG AP   SUNNY       72  46  39  VRB3    29.82F
#ELLENSBURG CWU N/A         70  51  51  N6      29.71F
#ELLENSBURG 1E  N/A         69  52  55  CALM    29.78F
#MANASTASH RDG  N/A         64  48  56  N7      N/A
#ROCKY CYN DOT  N/A         71  53  53  NW10    N/A
#RYEGRASS DOT   N/A         64  47  54  W5      N/A
#THORP 6N       N/A         71  56  59  CALM    29.75S
$$

WAZ027-181810-
YAKIMA VALLEY

CITY            SKY/WX      TMP DP  RH  WIND    PRES   REMARKS
SUNNYSIDE AP    SUNNY       70  53  55  CALM    29.82R
YAKIMA AIRPORT  SUNNY       71  49  46  CALM    29.82S
YAKIMA-VAGABOND SUNNY       71  45  39  CALM    29.81S
#MABTON         N/A         68  56  65  W2      29.81S
#NACHES 2SW     N/A         69  50  51  N1      29.84F
#OUTLOOK DOT    N/A         67  56  68  CALM    29.79S
#PARKER DOT     N/A         72  48  43  SE3     29.81S
#TERRACE HTS    N/A         69  52  55  W1      29.74F
#TOPPENISH      N/A         68  54  61  CALM    29.71S
#I82 S UMTANUM RN/A         70  47  44  CALM    N/A
#ZILLAH DOT     N/A         69  53  57  CALM    N/A
$$

WAZ028-181810-
LOWER COLUMBIA BASIN...WASHINGTON

CITY            SKY/WX      TMP DP  RH  WIND    PRES   REMARKS
HANFORD         MOSUNNY     72  49  44  NE5     29.79S
PASCO           SUNNY       74  53  48  SW5     29.81S
PROSSER AWOS    N/A         72  54  53  CALM    29.84S
RICHLAND AWOS   SUNNY       76  54  46  CALM    29.81S
#BASIN CITY 5SW N/A         71  59  66  CALM    29.79R
#BENTON CITY    N/A         76  57  52  CALM    29.69S
#CONNELL 5N     N/A         70  55  59  SW3     29.78S
#CONNELL 5NW    N/A         67  40  37  CALM    29.74S
#ELTOPIA 6NW    N/A         67  57  70  CALM    28.80S
#KAHLOTUS       N/A         71  52  51  SW5     29.78R
#KENNEWICK 3S   N/A         69  54  59  S3      29.78R
#PROSSER DOT    N/A         73  52  48  CALM    29.82R
#SAGEMOOR 2W    N/A         68  56  65  SE1     29.65S
#TOUCHET 2S     N/A         73  55  53  N1      29.78S
$$

WAZ029-181810-
FOOTHILLS OF THE BLUES...WASHINGTON

CITY            SKY/WX      TMP DP  RH  WIND    PRES   REMARKS
WALLA WALLA AP  SUNNY       70  48  46  SW5     29.84R
#CLYDE 6NW      N/A         69  52  55  SW13    29.76F
#DELANEY DOT    N/A         74  47  38  SW3     29.84S
#LOWDEN 2SE     N/A         71  55  57  N1      29.79S
#PRESCOTT       N/A         73  53  49  CALM    29.80S
#WALLA WALLA 5E N/A         72  53  51  NW2     N/A
#WALLA WALLA U  N/A         72  53  51  CALM    29.79S
#WHITMAN MISSIONN/A         69  55  61  CALM    29.82S
$$

WAZ030-181810-
BLUE MOUNTAINS...WASHINGTON

CITY            SKY/WX      TMP DP  RH  WIND    PRES   REMARKS
#DIXIE 5SE      N/A         65  50  58  W2      29.80S
$$

ORZ009-041-WAZ024-181810-
COLUMBIA RIVER GORGE

CITY            SKY/WX      TMP DP  RH  WIND    PRES   REMARKS
HOOD RIVER AP   SUNNY       68  52  57  W12     29.83F
THE DALLES AP   SUNNY       71  53  53  N7      29.81F
#CELILO DOT     N/A         72  54  53  W2      N/A
#LYLE           N/A         68  56  65  W9      29.82S
#MARYHILL       N/A         67  53  61  N7      N/A

$$

ORZ510-181810-
NORTH CENTRAL OREGON

CITY            SKY/WX      TMP DP  RH  WIND    PRES   REMARKS
#ANTELOPE       N/A         67  48  50  S2      29.64F
#COW CYN RST AREN/A         63  45  52  SW8     N/A
#DUFUR          N/A         67  52  59  E1      29.77F
#DUFUR 9E       N/A         61  51  70  E3      29.84S
#GRASS VALLEY 1SN/A         67  50  54  W7      30.02R
#KENT DOT       N/A         71  42  35  SW10    N/A
#SHANIKO 5WSW   N/A         66  44  45  S7      N/A
#TYGH VALLEY 2NEN/A         64  52  65  CALM    29.78F
#WAPANITIA AIRPON/A         69  50  51  CALM    29.79F
#WASCO DOT      N/A         67  52  59  W8      N/A
#WASCO 5NE      N/A         65  52  63  W7      29.78S
$$

ORZ511-181810-
CENTRAL OREGON

CITY            SKY/WX      TMP DP  RH  WIND    PRES   REMARKS
BEND AIRPORT    SUNNY       73  43  34  CALM    29.90S
MADRAS AIRPORT  SUNNY       68  43  40  CALM    29.89S
PRINEVILLE AP   SUNNY       72  45  38  E6      29.90S
REDMOND AIRPORT SUNNY       74  44  34  S7      29.89S
#ASHWOOD SCHOOL N/A         67  46  47  CALM    29.84F
#BEND-KIM LN    N/A         67  47  49  NE1     29.72S
#CULVER         N/A         66  47  50  CALM    29.16F
#PRINEVILLE     N/A         68  50  53  CALM    29.86F
#WARM SPRINGS   N/A         67  50  54  CALM    29.67F

$$


ORZ509-181810-
EAST SLOPES OF OREGON CASCADES

CITY            SKY/WX      TMP DP  RH  WIND    PRES   REMARKS
SISTERS AWOS    N/A         66  46  48  CALM    29.87F
#BLUE BOX PASS  N/A         57  N/A N/A CALM    N/A
#CAMP SHERMAN   N/A         64  45  50  CALM    29.84F
#LA PINE 4NW    N/A         62  47  58  CALM    29.93S
#LAVA BUTTE DOT N/A         64  44  48  S1      N/A
#SISTERS ODOT   N/A         66  45  47  CALM    N/A
#TUMALO 3W      N/A         67  47  49  SW2     29.62F
#WANOGA BUTTE D N/A         62  36  38  W7      N/A

$$

ORZ044-181810-
LOWER COLUMBIA BASIN...OREGON

CITY            SKY/WX      TMP DP  RH  WIND    PRES   REMARKS
HERMISTON       SUNNY       71  52  51  W6      29.82S
#BOARDMAN SCHOOLN/A         69  57  66  CALM    29.76S
#ECHO 8SW       N/A         70  54  57  CALM    29.84R
#I-84 EX 198 DOTN/A         69  54  59  NE6     N/A
#IONE SCHOOL    N/A         68  48  49  CALM    29.80S
#UMATILLA       N/A         69  54  59  CALM    29.73S
$$

ORZ507-181810-
NORTHERN FOOTHILLS OF THE BLUES

CITY            SKY/WX      TMP DP  RH  WIND    PRES   REMARKS
PENDLETON AIRPT SUNNY       72  46  39  VRB5    29.84R
#ADAMS 3WNW     N/A         71  50  47  W2      29.78S
#ATHENA         N/A         72  51  48  CALM    29.81S
#HELIX SCHOOL   N/A         69  50  51  CALM    29.79R
#HELIX 3N       N/A         69  49  49  S3      29.88R
#HOLDMAN 6E     N/A         69  50  51  SW3     29.59S
#M-FREEWATER 5SEN/A         71  55  57  CALM    29.83S
#PDT AQUATIC CTRN/A         67  49  52  CALM    29.79S
#PDT SUNRIDGE   N/A         69  52  55  CALM    29.85S
#PENDLETON 6SE  N/A         71  52  51  CALM    29.74S
#TUTUILLA       N/A         67  52  59  NE1     29.89F
#UMAPINE 2E     N/A         72  55  55  CALM    29.78F

$$

ORZ508-181810-
SOUTHERN FOOTHILLS OF THE BLUES

CITY            SKY/WX      TMP DP  RH  WIND    PRES   REMARKS
#AJAX           N/A         67  45  45  CALM    30.02S
#CONDON 5W      N/A         69  47  45  S6      29.86S
#HEPPNER EOC    N/A         70  45  41  W2      29.71S
#HEPPNER 4NE    N/A         70  43  38  NW6     29.77S
#LEXINGTON 2SE  N/A         72  48  43  W7      29.80S
#OLEX 4N        N/A         68  52  57  SW7     29.82F
#RUGGS 5NE      N/A         73  42  33  W2      30.04S
#RUGGS 2SW      N/A         75  37  25  W3      29.78S

$$

ORZ502-503-181810-
BLUE MOUNTAINS

CITY            SKY/WX      TMP DP  RH  WIND    PRES   REMARKS
MEACHAM         SUNNY       72  38  29  VRB3    29.92R
#BATTLE MTN DOT N/A         61  44  53  SE7     N/A
#LADD CYN SMT   N/A         68  43  40  SE8     N/A
#N POWDER DOT   N/A         68  45  44  CALM    N/A
#TOLLGATE       N/A         62  43  50  CALM    30.01R
#TROY SCHOOL    N/A         74  52  46  CALM    29.63F
#WESTON 4E      N/A         69  45  42  CALM    29.75R
$$

ORZ505-181810-
JOHN DAY BASIN

CITY            SKY/WX      TMP DP  RH  WIND    PRES   REMARKS
JOHN DAY        SUNNY       72  42  34  E5      29.94S
#DAYVILLE SCHOOLN/A         69  46  44  CALM    29.87F
#MITCHELL 8NW   N/A         67  43  42  CALM    29.78S
#MONUMENT HS    N/A         68  45  44  NE1     29.84F
$$

ORZ506-181810-
OCHOCO AND JOHN DAY HIGHLANDS

CITY            SKY/WX      TMP DP  RH  WIND    PRES   REMARKS
#HORSE RIDGE DO N/A         70  42  36  CALM    N/A
#PAULINA ODOT   N/A         64  43  46  E2      N/A
#PRAIRIE CITY   N/A         70  46  42  CALM    30.04F
#SENECA 9NW     N/A         59  43  55  CALM    29.82R
$$

ORZ049-181810-
GRANDE RONDE VALLEY

CITY            SKY/WX      TMP DP  RH  WIND    PRES   REMARKS
LA GRANDE       SUNNY       65  47  52  CALM    29.91S
#COVE SCHOOL    N/A         67  52  59  CALM    29.93S
#COVE 6NW       N/A         64  49  58  CALM    29.82F
#ELGIN 1E       N/A         66  47  50  CALM    N/A
#IMBLER SCHOOL  N/A         61  49  65  CALM    29.88S
#ISLAND CITY 4N N/A         62  57  84  CALM    29.90R
#LADD CYN DOT   N/A         63  50  62  CALM    N/A
#UNION 1S       N/A         63  50  62  CALM    29.81S
$$

ORZ050-181810-
WALLOWA COUNTY

CITY            SKY/WX      TMP DP  RH  WIND    PRES   REMARKS
#ENTERPRISE HS  N/A         68  51  55  CALM    29.68F
#JOSEPH 3N      N/A         66  45  47  CALM    29.96F
#LOSTINE        N/A         64  48  56  CALM    29.61F
#LOSTINE 3SE    N/A         66  45  47  E1      N/A
#MT HOWARD 8000 N/A         60  28  29  CALM    30.14S
#WALLOWA LAKE   N/A         67  44  43  CALM    29.98S



$$

Previous Regional Weather Roundups may be found at
NWS Pendleton, OR (PDT) Office Regional Weather Roundups.
(Click 'Previous Version' there to view past versions successively.
Some may differ only in time posted.)

San Juan, PRHonolulu, HI Lake Charles, LA Pueblo, CO Corpus Christi, TX St. Louis, MO Reno, NV Raleigh, NC  Newport/Morehead City, NC Dodge City, KS Houston/Galveston, TX San Joaquin Valley/Hanford, CA Louisville, KY Fort Worth, TX Pittsburgh, PA Austin/San Antonio, TX Sacramento, CA Jackson, MS Phoenix, AZ Northern Indiana, IN Flagstaff, AZ Tallahassee, FL Springfield, MO Riverton, WY Blacksburg, VA Sioux Falls, SD El Paso Area, NM Columbia, SC Wilmington, NC Greenville-Spartanburg, SC Eureka, CA Midland/Odessa, TX Tucson, AZ Goodland, KS Huntsville, AL Amarillo, TX Norman, OK Lubbock, TX Marquette, MI Little Rock, AR Pendleton, OR Missoula, MT Binghamton, NY Boston, MA Green Bay, WI Billings, MT Baltimore/Washington San Diego, CA Tampa Bay, FL Morristown, TN Twin Cities, MN Brownsville, TX Portland, OR Des Moines, IA Memphis, TN Pocatello, ID San Angelo, TX Jacksonville, FL Aberdeen, SD Quad Cities, IA/IL Charleston, SC New Orleans/Baton Rouge, LA Peachtree City, GA Shreveport, LA Grand Rapids, MI Medford, OR Albany, NY Wichita, KS Gray/Portland, ME Spokane, WA Boise, ID Denver/Boulder, CO Great Falls, MT Caribou, ME Key West, FL Miami-South Florida, FL New York City/Upton, NY Melbourne, FL Hastings, NE Paducah, KY Glasgow, MT Bismarck, ND Charleston WV Omaha/Valley, NE Buffalo, NY Jackson, KY Kansas City/Pleasant Hill, MO Gaylord, MI Cheyenne, WY Grand Forks, ND Detroit/Pontiac, MI Central Illinois, IL Burlington, VT Salt Lake City, UT Topeka, KS Nashville, TN Milwaukee/Sullivan, WI Albuquerque, NM Las Vegas, NV Wakefield, VA La Crosse, WI Birmingham, AL Los Angeles/Oxnard, CA Chicago, IL Seattle, WA Rapid City, SD Indianapolis, IN Philadelphia/Mount Holly, PA Mobile/Pensacola State College, PA Cleveland, OH Elko, NV Wilmington, OH Grand Junction, CO North Platte, NE Tulsa, OK San Francisco/Monterey Bay Area, CA Duluth, MN Anchorage, AK Fairbanks, AK Juneau, AK Tiyan, GU

Products Courtesy of NOAA-NWS
NWS Information Parsing Script by Ken True at Saratoga Weather - WFO and Products Scripts by SE Lincoln Weather.
Mapping by Curly at Michiana Weather and by Tom at My Mishawaka Weather.